Tracking 31027 objects as of 19-Jul-2025
HD Live streaming from Space Station
objects crossing your sky now

YZ-1 R/B

Track YZ-1 R/B now!


NORAD ID: 44866
Int'l Code: 2019-090C
Perigee: 22,147.0 km
Apogee: 22,552.6 km
Inclination: 56.1 °
Period: 807.3 minutes
Semi major axis: 28720 km
RCS: Unknown
Launch date: December 16, 2019
Source: People's Republic of China (PRC)
Launch site: Xichang Space Center, China (XSC)

Note: This is a ROCKET BODY
Your satellite tracking list
STARLINK-30103
Track 1 satellite(s)




NASA's NSSDC Master Catalog

Two Line Element Set (TLE):
1 44866U 19090C   25198.05253268 -.00000030  00000-0  00000+0 0  9996
2 44866  56.0807  79.6792 0070619  33.5608 326.9485  1.78364346 36372
Source of the keplerian elements: AFSPC